缅甸as自治系统、Burma自治系统as、缅甸分配自治系统号码数

该页面显示是缅甸全球所有as自治系统号码数据。自治系统号码数据来自世界asn分配中心数据系统,准确率高,每天会自动 同步国际信息,最新更新时间是:2018-12-11,截止到当天,全球一共分配了: 164452 个as自治系统号码,缅甸所分配的as自治系统号码数是:74 个! 占总as自治系统比:0.045%,所分配自治系统总数全球排行:84 位!下载缅甸as自治系统号码数据 TXT格式  file下载

排序 as自治系统号码 注册机构 分配IP个数 登记时间
1 AS45558 MPT-MM-AS-AP MYANMA POSTS AND TELECOMMUNICATIONS, MM 33,280个 20081202
2 AS131322 YTCL-AS-AP Yatanarpon Teleport Company Limited, MM 18,432个 20110614
3 AS18399 YTCL-AS-AP Yatanarpon Teleport Company Limited, MM 16,640个 20021104
4 AS9988 MPT-AP Myanma Posts and Telecommunications, MM 14,336个 20000426
5 AS132167 OML-MM OOREDOO MYANMAR, MM 12,288个 20130917
6 AS133385 TELENORMYANMAR-AS Telenor Myanmar, MM 7,424个 20140224
7 AS136255 TIMCL-AS-AP Telecom International Myanmar Co., Ltd, MM 5,888个 19700101
8 AS132344 STMCL-AS-AP SEANET, MM 3,584个 19700101
9 AS58952 FRONTIIRCOLTD-MM Frontiir Co. Ltd, MM 3,328个 20130702
10 AS135371 FORTUNEINTERNATIONAL-AS-AP Fortune International Ltd., MM 3,072个 19700101
11 AS135307 GTMH-AS-AP Golden TMH Telecom Co. Ltd, MM 2,816个 19700101
12 AS134739 AGBCOM-AS-AP AGB Communication Co.Ltd, MM 2,560个 19700101
13 AS136780 MIHL-AS-AP MYANMAR INFORMATION HIGHWAY LIMITED, MM 2,560个 19700101
14 AS135427 MYANMARNETWORK-AS-AP Myanmar Network Company Limited, MM 2,304个 19700101
15 AS132100 MSN-AS-AP Myanmar Speed Net Co.,Ltd, MM 2,304个 19700101
16 AS133384 GTCL-AS-AP 5BB Broadband, MM 2,048个 20140219
17 AS133524 GTCL-AS-AP Global Technology Co., Ltd., MM 2,048个 20140606
18 AS63998 KMTCL-MM Kinetic Myanmar Technology, MM 2,048个 20150622
19 AS134736 NTTCT-AS-AP NTT Communications (Thailand) Co., Ltd. (Yangon Branch), MM 2,048个 19700101
20 AS134840 MCCL-AS-AP Myanmar Country Co., Ltd., MM 2,048个 19700101
21 AS134976 MATL-AS-AP Myint & Associates Telecommunications Ltd, MM 2,048个 19700101
22 AS135433 KGCL-AS-AP KBZ Gateway Company Ltd, MM 2,048个 19700101
23 AS135529 FMCL-AS-AP FPT MYANMAR COMPANY LIMITED, MM 2,048个 19700101
24 AS136210 ITSPECTRUM-AS-AP IT Spectrum Company Limited, MM 2,048个 19700101
25 AS63852 FMG-MM Myanmar Net, MM 1,024个 20141112
26 AS134105 STLMC-AS-AP Shwe Than Lwin Media Co.,Ltd., MM 1,024个 20150316
27 AS134714 ETPCL-AS-AP Elite Telecom Public Company Limited, MM 1,024个 19700101
28 AS135325 MHI-AS-AP MY HOSTED INTERNET LTD, MM 1,024个 19700101
29 AS135405 TMHTTWTL-AS-AP WELINK, MM 1,024个 19700101
30 AS132037 HTCL-AS-AP HO'NGSA' TELECOM COMPANY LIMITED, MM 1,024个 19700101
31 AS132148 HTI-AS-AP HORIZON TELECOM INTERNATIONAL COMPANY LIMITED, MM 1,024个 19700101
32 AS136168 CAMPANA-AS-AP Campana MYTHIC Co. Ltd., MM 1,024个 19700101
33 AS136442 OCEANWAVE-AS-AP Ocean Wave Communication Co., Ltd, MM 1,024个 19700101
34 AS136474 MGTL-AS-AP Marga Global Telecom Limited, MM 1,024个 19700101
35 AS136480 MMUNILINK-AS-AP Myanmar Unilink Communication Company Limited, MM 1,024个 19700101
36 AS136613 AYEYARWADYBANK-AS-AP Ayeyarwady Bank, MM 1,024个 19700101
37 AS136617 FTCL-AS-AP Fortune Telecom Company Limited, MM 1,024个 19700101
38 AS136783 NETCORE-AS-AP Spectrum Life Company Limited, MM 1,024个 19700101
39 AS136786 I-BEAM-AS-AP Information Beam Company Limited, MM 1,024个 19700101
40 AS136919 FACE24COLTD-AS-AP FACE24 Co.,Ltd, MM 1,024个 19700101
41 AS136975 GNET-AS-AP Global Technology, MM 1,024个 19700101
42 AS137431 RPCL-AS-AP ZORRO RITZ PUBLIC COMPANY LIMITED, MM 1,024个 19700101
43 AS137560 GMBECL-AS-AP Golden Myanmar Business Exchange Co. Ltd, MM 1,024个 19700101
44 AS137878 GOLDENET-AS-AP MYA INYA CONSTRUCTION COMPANY LIMITED, MM 1,024个 19700101
45 AS137893 NGN-AS-AP NEXGENET COMPANY LIMITED, MM 1,024个 19700101
46 AS138167 TRUENET-AS-AP TrueNET Company Limited, MM 1,024个 19700101
47 AS138168 APN-AS-AP MyanmarAPN Company Limited, MM 1,024个 19700101
48 AS134405 DATASERVICESPACIFIC-AS-AP Data Services Pacific, NC 768个 19700101
49 AS135300 MBTCL-AS-AP Myanmar Broadband Telecom Co., Ltd, MM 512个 19700101
50 AS136177 YOMABANKLIMITED-AS-AP Yoma Bank Limited, MM 512个 19700101
51 AS137861 MWT-AS-AP Myanmar World Distribution Telecommunication Company Limited, MM 512个 19700101
52 AS137891 BETHEFIRST-AS-AP Be The First, MM 512个 19700101
53 AS133392 YTCL-AS-AP Yatanarpon Teleport Company Limited, MM 256个 20140227
54 AS135149 MTGCL-AS-AP Myanmar Technology Gateway Co., Ltd, MM 256个 19700101
55 AS136952 NETCORE-AS-AP Spectrum Life Company Limited, MM 256个 19700101
56 AS138158 SPAL-AS-AP Serge Pun & Associate (Myanmar) Ltd., MM 256个 19700101
57 AS132026 RL-AS-AP Yatanarpon Teleport Company Limited, MM 0个 20110916
58 AS63982 MMTELECOM-MM Myanma Post & Telecommunication, MM 0个 20150518
59 AS134846 ASCL-AS-AP Access Spectrum Co., Ltd., MM 0个 19700101
60 AS135410 UNIQUECOMM-AS-AP Unique Comm Company Limited, MM 0个 19700101
61 AS135567 APL-AS-AP AirMax Private Limited, PK 0个 19700101
62 AS131275 LBPL-AS-AP Logon Broadband Pvt. Limited, PK 0个 19700101
63 AS135651 STCORP-AS-AP Shwe Taung Development Company Limited, MM 0个 19700101
64 AS136137 TERABITWAVE-AS-AP Terabit Wave Company Limited, MM 0个 19700101
65 AS136465 INFORMATIONTECHNOLOGYCYBERSECURITY-AS-AP Dept. of Information Technology & Cyber Security, MM 0个 19700101
66 AS136508 , 0个 19700101
67 AS136752 GTTCL-MANDALAY-AS-AP Golden TMH Telecom Co. Ltd, MM 0个 19700101
68 AS137069 ROOIBOS-AS-AP Rooibos Network, GB 0个 19700101
69 AS137503 OCCL-AS-AP One Connection company limited, MM 0个 19700101
70 AS137826 ASTCL-AS-AP AST SYSTEM TECHNOLOGY COMPANY LIMITED, MM 0个 19700101
71 AS137888 BCM-AS-AP Bee Connect Myanmar Co., Ltd., MM 0个 19700101
72 AS137955 MMIX-AS-AP Myanmar Internet Exchange, MM 0个 19700101
73 AS134603 THOOLEICOLTD-AS-AP Thoolei Co., Ltd., MM 0个 19700101
74 AS138401 VERUMLIB-AS-AP MM-VERUMLIB CO., LTD., MM 0个 19700101

请输入地址
请输入地址